sat.trackr.live / text

‹ back to catalog

STARLINK-6202

NORAD 56896 · 2023-083W

PAYLOAD ACTIVE UNKNOWN

§ Identity

Operator
Country
US
Launch date
2023-06-12
Launch site
AFETR
Launch vehicle
Mass (kg)
RCS (m²)

Purposes: comms

External: N2YO · Heavens-Above · Gunter

§ Orbital elements

Epoch: 2026-09-19T19:13:58.089792Z

Period
94.27 min
Inclination
43.0047°
Eccentricity
0.0001733
Mean motion
15.27580640 rev/d
Perigee alt
481.9 km
Apogee alt
484.2 km
Semi-major
6,861.2 km
B*
2.7320e-5
RAAN
72.6711°
Arg perigee
276.4469°
Mean anomaly
83.6185°
Rev number
18,138

§ Raw data

STARLINK-62021 56896U 23083W   26262.80136678  .00000490  00000+0  27320-4 0  99972 56896  43.0047  72.6711 0001733 276.4469  83.6185 15.27580640181380

JSON: /api/v1/satellites/56896 · /tle

For live sub-satellite position, see the globe view (requires WebGL).

§ Visibility from observer

Set your observer location to see the next 7 days of passes ≥ 10°. The values pass through the URL so the page stays shareable.

No JS? Fill the form by hand. The geolocation button needs JavaScript.